When you browse on this site, cookies collect data to enhance your experience and personalize the content and advertising you see.
Visit our Privacy Policy to learn more. By continuing to use the site, you agree to this use of cookies and data.
  • In Sweden
  • List of Countries
  • For 7 days
  • Water Temperature
  • Weather Map
  • Weather Widgets
  • user-avatar
    Login

    Hourly Weather Harer

    Today, 6 December, Friday

    Time Temperature Precipitation Wind Pressure Humidity
    00:00 +14°C° 0 mm 3 mps 606 mmHg 63%
    01:00 +14°C° 0 mm 3 mps 606 mmHg 62%
    02:00 +14°C° 0 mm 2 mps 605 mmHg 61%
    03:00 +14°C° 0 mm 2 mps 605 mmHg 61%
    04:00 +13°C° 0 mm 2 mps 605 mmHg 58%
    05:00 +13°C° 0 mm 2 mps 605 mmHg 56%
    06:00 +13°C° 0 mm 2 mps 605 mmHg 53%
    07:00 +14°C° 0 mm 3 mps 606 mmHg 48%
    08:00 +17°C° 0 mm 3 mps 607 mmHg 42%
    09:00 +19°C° 0 mm 4 mps 608 mmHg 36%
    10:00 +20°C° 0 mm 5 mps 608 mmHg 36%
    11:00 +21°C° 0 mm 5 mps 608 mmHg 35%
    12:00 +22°C° 0 mm 6 mps 608 mmHg 34%
    13:00 +22°C° 0 mm 6 mps 607 mmHg 34%
    14:00 +22°C° 0 mm 7 mps 607 mmHg 33%
    15:00 +22°C° 0 mm 7 mps 606 mmHg 32%
    16:00 +21°C° 0 mm 7 mps 606 mmHg 35%
    17:00 +19°C° 0 mm 6 mps 606 mmHg 37%
    18:00 +17°C° 0 mm 6 mps 606 mmHg 40%
    19:00 +16°C° 0 mm 6 mps 606 mmHg 46%
    20:00 +15°C° 0 mm 5 mps 606 mmHg 52%
    21:00 +14°C° 0 mm 4 mps 606 mmHg 58%
    22:00 +14°C° 0 mm 4 mps 606 mmHg 58%
    23:00 +13°C° 0 mm 4 mps 605 mmHg 58%

    Tomorrow, 7 December, Saturday

    Time Temperature Precipitation Wind Pressure Humidity
    00:00 +13°C° 0 mm 4 mps 605 mmHg 58%
    01:00 +13°C° 0 mm 4 mps 605 mmHg 58%
    02:00 +12°C° 0 mm 4 mps 605 mmHg 58%
    03:00 +12°C° 0 mm 4 mps 604 mmHg 58%
    04:00 +12°C° 0 mm 3 mps 604 mmHg 60%
    05:00 +12°C° 0 mm 3 mps 604 mmHg 63%
    06:00 +12°C° 0 mm 3 mps 605 mmHg 66%
    07:00 +14°C° 0 mm 3 mps 606 mmHg 62%
    08:00 +17°C° 0 mm 3 mps 606 mmHg 58%
    09:00 +19°C° 0 mm 3 mps 607 mmHg 54%
    10:00 +20°C° 0 mm 4 mps 607 mmHg 51%
    11:00 +22°C° 0 mm 4 mps 608 mmHg 48%
    12:00 +23°C° 0 mm 4 mps 608 mmHg 44%
    13:00 +23°C° 0 mm 5 mps 607 mmHg 44%
    14:00 +22°C° 0 mm 5 mps 606 mmHg 44%
    15:00 +22°C° 0 mm 6 mps 606 mmHg 44%
    16:00 +21°C° 0 mm 5 mps 606 mmHg 47%
    17:00 +20°C° 0 mm 4 mps 606 mmHg 50%
    18:00 +19°C° 0 mm 4 mps 606 mmHg 52%
    19:00 +19°C° 0 mm 3 mps 606 mmHg 55%
    20:00 +18°C° 0 mm 3 mps 606 mmHg 57%
    21:00 +18°C° 0 mm 3 mps 606 mmHg 59%
    22:00 +17°C° 0 mm 3 mps 606 mmHg 60%
    23:00 +17°C° 0 mm 3 mps 606 mmHg 60%

    Day after tomorrow, 8 December, Sunday

    Time Temperature Precipitation Wind Pressure Humidity
    00:00 +17°C° 0 mm 3 mps 606 mmHg 61%
    01:00 +17°C° 0.2 mm 3 mps 605 mmHg 65%
    02:00 +16°C° 0.2 mm 3 mps 605 mmHg 69%
    03:00 +16°C° 0.2 mm 3 mps 604 mmHg 73%
    04:00 +16°C° 0.1 mm 3 mps 605 mmHg 73%
    05:00 +16°C° 0.1 mm 3 mps 605 mmHg 74%
    06:00 +16°C° 0.1 mm 3 mps 605 mmHg 75%
    07:00 +17°C° 0 mm 3 mps 606 mmHg 70%
    08:00 +18°C° 0 mm 3 mps 607 mmHg 66%
    09:00 +19°C° 0 mm 3 mps 607 mmHg 62%
    10:00 +19°C° 0 mm 3 mps 607 mmHg 63%
    11:00 +19°C° 0 mm 3 mps 607 mmHg 65%
    12:00 +19°C° 0 mm 3 mps 606 mmHg 66%
    13:00 +19°C° 0.1 mm 2 mps 606 mmHg 66%
    14:00 +19°C° 0.1 mm 2 mps 606 mmHg 65%
    15:00 +20°C° 0.1 mm 2 mps 605 mmHg 65%
    16:00 +19°C° 0.8 mm 2 mps 605 mmHg 72%
    17:00 +18°C° 0.8 mm 2 mps 605 mmHg 78%
    18:00 +17°C° 0.8 mm 2 mps 605 mmHg 85%
    19:00 +17°C° 0.2 mm 2 mps 605 mmHg 84%
    20:00 +18°C° 0.2 mm 1 mps 606 mmHg 84%
    21:00 +18°C° 0.2 mm 1 mps 606 mmHg 84%
    22:00 +16°C° 0.1 mm 1 mps 606 mmHg 84%
    23:00 +16°C° 0.1 mm 1 mps 606 mmHg 85%

    9 December, Monday

    Time Temperature Precipitation Wind Pressure Humidity
    00:00 +16°C° 0.1 mm 1 mps 605 mmHg 85%
    01:00 +15°C° 0 mm 1 mps 605 mmHg 86%
    02:00 +15°C° 0 mm 1 mps 604 mmHg 86%
    03:00 +13°C° 0 mm 0 mps 604 mmHg 87%
    04:00 +13°C° 0 mm 0 mps 604 mmHg 88%
    05:00 +13°C° 0 mm 0 mps 604 mmHg 89%
    06:00 +12°C° 0 mm 0 mps 604 mmHg 89%
    07:00 +14°C° 0 mm 0 mps 606 mmHg 78%
    08:00 +18°C° 0 mm 1 mps 607 mmHg 67%
    09:00 +21°C° 0 mm 1 mps 608 mmHg 56%
    10:00 +22°C° 0 mm 1 mps 608 mmHg 54%
    11:00 +23°C° 0 mm 1 mps 608 mmHg 51%
    12:00 +24°C° 0 mm 2 mps 608 mmHg 48%
    13:00 +23°C° 0.2 mm 2 mps 607 mmHg 51%
    14:00 +23°C° 0.2 mm 2 mps 606 mmHg 53%
    15:00 +23°C° 0.2 mm 2 mps 606 mmHg 55%
    16:00 +21°C° 0.3 mm 2 mps 605 mmHg 61%
    17:00 +20°C° 0.3 mm 2 mps 605 mmHg 67%
    18:00 +19°C° 0.3 mm 2 mps 605 mmHg 72%
    19:00 +19°C° 0.2 mm 2 mps 605 mmHg 74%
    20:00 +18°C° 0.2 mm 2 mps 606 mmHg 76%
    21:00 +18°C° 0.2 mm 2 mps 606 mmHg 77%
    22:00 +19°C° 0.4 mm 1 mps 606 mmHg 79%
    23:00 +19°C° 0.4 mm 1 mps 606 mmHg 80%

    10 December, Tuesday

    Time Temperature Precipitation Wind Pressure Humidity
    00:00 +16°C° 0.4 mm 0 mps 606 mmHg 81%
    01:00 +16°C° 0.3 mm 0 mps 605 mmHg 81%
    02:00 +16°C° 0.3 mm 0 mps 605 mmHg 82%
    03:00 +16°C° 0.3 mm 0 mps 605 mmHg 83%
    04:00 +16°C° 0.2 mm 0 mps 605 mmHg 84%
    05:00 +15°C° 0.2 mm 0 mps 605 mmHg 85%
    06:00 +15°C° 0.2 mm 0 mps 605 mmHg 86%
    07:00 +16°C° 0 mm 0 mps 606 mmHg 79%
    08:00 +18°C° 0 mm 0 mps 607 mmHg 72%
    09:00 +19°C° 0 mm 0 mps 608 mmHg 66%
    10:00 +22°C° 0.3 mm 1 mps 608 mmHg 62%
    11:00 +23°C° 0.3 mm 1 mps 607 mmHg 59%
    12:00 +24°C° 0.3 mm 2 mps 607 mmHg 55%
    13:00 +23°C° 0.6 mm 2 mps 607 mmHg 57%
    14:00 +23°C° 0.6 mm 2 mps 606 mmHg 58%
    15:00 +23°C° 0.6 mm 2 mps 606 mmHg 60%
    16:00 +21°C° 1.1 mm 2 mps 605 mmHg 67%
    17:00 +21°C° 1.1 mm 1 mps 605 mmHg 73%
    18:00 +20°C° 1.1 mm 1 mps 605 mmHg 79%
    19:00 +20°C° 0.7 mm 1 mps 605 mmHg 80%
    20:00 +19°C° 0.7 mm 1 mps 605 mmHg 81%
    21:00 +19°C° 0.7 mm 1 mps 606 mmHg 82%
    22:00 +19°C° 0.8 mm 1 mps 606 mmHg 84%
    23:00 +18°C° 0.8 mm 1 mps 605 mmHg 85%

    11 December, Wednesday

    Time Temperature Precipitation Wind Pressure Humidity
    00:00 +17°C° 0.8 mm 2 mps 605 mmHg 87%
    01:00 +18°C° 0.6 mm 1 mps 605 mmHg 87%
    02:00 +18°C° 0.6 mm 1 mps 605 mmHg 88%
    03:00 +18°C° 0.6 mm 1 mps 604 mmHg 88%
    04:00 +16°C° 0.2 mm 1 mps 605 mmHg 89%
    05:00 +16°C° 0.2 mm 1 mps 605 mmHg 89%
    06:00 +16°C° 0.2 mm 1 mps 605 mmHg 90%
    07:00 +17°C° 0.2 mm 2 mps 606 mmHg 84%
    08:00 +18°C° 0.2 mm 2 mps 606 mmHg 78%
    09:00 +19°C° 0.2 mm 2 mps 607 mmHg 71%
    10:00 +20°C° 0.5 mm 2 mps 607 mmHg 69%
    11:00 +20°C° 0.5 mm 2 mps 607 mmHg 66%
    12:00 +21°C° 0.5 mm 2 mps 607 mmHg 63%
    13:00 +21°C° 0.5 mm 2 mps 606 mmHg 61%
    14:00 +21°C° 0.5 mm 2 mps 606 mmHg 60%
    15:00 +23°C° 0.5 mm 2 mps 606 mmHg 58%
    16:00 +21°C° 0.3 mm 2 mps 605 mmHg 62%
    17:00 +20°C° 0.3 mm 2 mps 605 mmHg 66%
    18:00 +19°C° 0.3 mm 2 mps 605 mmHg 69%
    19:00 +20°C° 0.3 mm 1 mps 605 mmHg 73%
    20:00 +19°C° 0.3 mm 1 mps 605 mmHg 77%
    21:00 +16°C° 0.3 mm 0 mps 606 mmHg 80%
    22:00 +16°C° 0.1 mm 0 mps 605 mmHg 81%
    23:00 +16°C° 0.1 mm 0 mps 605 mmHg 81%
    Show more